Location: Haliburton Scout Reserve
(45.0900°N, 78.3200°W)
Time: 18:50:00
(UTC-05:00)

Courier 1B - Pass Details

Date: 02 December 2023
Orbit: 962 x 1209 km, 28.3° (Epoch: 23 February)

Event Time Altitude Azimuth Distance (km) Brightness Sun altitude
Rises 10:16:33 0° 215° (SW) 3,697 10.9 18.7°
Reaches altitude 10° 10:21:08 10° 187° (S) 2,711 11.0 19.1°
Maximum altitude 10:23:35 12° 164° (SSE) 2,533 12.0 19.2°
Drops below altitude 10° 10:26:01 10° 142° (SE) 2,689 11.7 19.4°
Sets 10:30:29 0° 113° (ESE) 3,632 11.2 19.7°
